Location: Hains Lake
(37.8540°N, 99.8578°W)
Time: 22:06:53
(UTC+00:00)

Explorer 7 - Pass Details

Date: 19 April 2021
Orbit: 484 x 677 km, 50.3° (Epoch: 13 May)

Event Time Altitude Azimuth Distance (km) Brightness Sun altitude
Rises 02:46:51 0° 237° (WSW) 2,606 10.7 -17.0°
Reaches altitude 10° 02:48:59 10° 239° (WSW) 1,747 9.8 -17.3°
Maximum altitude 02:52:57 72° 324° (NW) 574 7.0 -18.0°
Drops below altitude 10° 02:57:11 10° 49° (NE) 1,868 9.3 -18.7°
Enters shadow 02:57:33 - 50° (NE) 2,013 9.5 -18.8°
